DELTA 1 DEB

Satellite information

Favourite Embed

Satellite Type and Status

DEBRISIN ORBIT

Key statistics

Satellite DELTA 1 DEB at a glance.

Uptime

17291

Days in orbit

Revolutions

≈ 14.1

Per day

Orbit

SSO

Sun Synchronous Orbit

Inclination

99.1

Latest

Satellite identification and parameters

Extended collection of information and parameters for DELTA 1 DEB.

Object identification

Identified? True

Debris? True

Object name: DELTA 1 DEB

International designator: 1978-026P

Object number (NORAD): 12174

Object ID (CCSDS): 12174

Country: UNITED STATES OF AMERICA (US)

Current information (Y/N): Y

RCS size: LARGE

Orbital parameters

Period: 102.11 minutes

Inclination: 99.0641 deg

SMA: 7236.668 km

Apoapsis: 888.342 km

Periapsis: 828.723 km

RAAN: 215.3123 deg

Eccentricy: 0.0041192

Argument of periapsis: 225.3108 deg

Mean anomaly: 245.0374 deg

Mean motion: 14.10245788 rev/day

Mean motion (dot): 0.00000091 rev/day2

B* drag term: 0.000076824 1/REarth

Two-line elements (TLE)

Creation date: July 6, 2025, 6:05 p.m.

Reference frame: TEME

Reference center: EARTH

Epoch: July 6, 2025, 3:38 p.m. UTC

TLE line 0: 0 DELTA 1 DEB

TLE line 1: 1 12174U 78026P 25187.65176442 .00000091 00000-0 76824-4 0 9997

TLE line 2: 2 12174 99.0641 215.3123 0041192 225.3108 245.0374 14.10245788283032

Live tracking on map

Real-time ground track for satellite DELTA 1 DEB.

In-orbit conjunctions

A list of the most updated potential collisions computed for object DELTA 1 DEB.

Target Orbit TCA Probability of collision Miss distance Type
CZ-6A DEB LEO 2025-03-03 16:55:43 0.000541579 492.0 (m) DEBRIS
METEOR 2-8 DEB LEO 2024-08-01 23:33:15 0.0001821743 55.0 (m) DEBRIS

Associated space launch

Earth observation satellite

DELTA 1 DEB was lifted into orbit during the mission ‘Delta 2910 | Landsat 3’, on board a Delta 2910 space rocket.

The launch took place on March 5, 1978, 5:54 p.m. from Space Launch Complex 2W.

For more information about the launch, click the button.

Launch to space Delta 2910 | Landsat 3
Delta 2910 | Landsat 3

Agency: N/A

Status: Launch Successful

Launch date: March 5, 1978, 5:54 p.m. UTC

Rocket: Delta 2910

Launch pad: Space Launch Complex 2W

Location: Vandenberg SFB, CA, USA

...

Latest news about this satellite

There are no fresh news available about this satellite. Check back as we update our databases every day.


Newsletter sign-up

Weekly statistics, charts and insights to help you stay on top of the space industry.